Weather History for Fayetteville, NC

Change the Weather History Date:

Wednesday, July 10, 2013

  Actual Average Record
Temperature  
Mean Temperature 82 °F 81 °F  
Max Temperature 90 °F 91 °F 103 °F (1977)
Min Temperature 74 °F 72 °F 56 °F (1984)
Degree Days  
Heating Degree Days 0 0  
Month to date heating degree days 0 0  
Since 1 June heating degree days 0 0  
Since 1 July heating degree days 0 0  
Cooling Degree Days 17 16  
Month to date cooling degree days 155 160  
Year to date cooling degree days 799 840  
Since 1 June cooling degree days 550 556  
Growing Degree Days 32 (Base 50)    
Moisture  
Dew Point 72 °F    
Average Humidity 76    
Maximum Humidity 100    
Minimum Humidity 52    
Precipitation  
Precipitation 0.01 in 0.19 in 2.04 in (1946)
Month to date precipitation 4.70 1.71  
Year to date precipitation 26.62 21.73  
Sea Level Pressure  
Sea Level Pressure 30.04 in    
Wind  
Wind Speed 8 mph (SSW)    
Max Wind Speed 16 mph    
Max Gust Speed 21 mph    
Visibility 10 miles    
Events      
T = Trace of Precipitation, MM = Missing Value Source: NWS Daily Summary

Daily Weather History Graph

Daily Weather History Graph

Search for Another Location

Airport:

Trip Planner

Search our weather history database for the weather conditions in past years. The results will help you decide how hot, cold, wet, or windy it might be!

Date:

Astronomy

Jul. 10, 2013 Rise Set
Actual Time 6:09 AM EDT 8:31 PM EDT
Civil Twilight 5:40 AM EDT 9:00 PM EDT
Nautical Twilight 5:04 AM EDT 9:36 PM EDT
Astronomical Twilight 4:25 AM EDT 10:15 PM EDT
Moon 8:22 AM EDT (7/10) 9:48 PM EDT (7/10)
Length of Visible Light 15h 20m
Length of Day
14h 21m
Waxing Crescent, 5% of the Moon is Illuminated
Jul 10
Waxing Crescent
Jul 15
First Quarter
Jul 22
Full
Jul 29
Last Quarter
Aug 6
New

Hourly Weather History & Observations

Time (EDT) Temp. Heat Index Dew Point Humidity Pressure Visibility Wind Dir Wind Speed Gust Speed Precip Events Conditions
12:53 AM 75.0 °F - 73.0 °F 94% 30.11 in 10.0 mi SSW 5.8 mph - N/A   Clear
1:53 AM 75.0 °F - 73.0 °F 94% 30.09 in 10.0 mi SSW 5.8 mph - N/A   Clear
2:53 AM 75.0 °F - 73.9 °F 96% 30.08 in 10.0 mi SSW 4.6 mph - N/A   Scattered Clouds
3:53 AM 75.0 °F - 73.0 °F 94% 30.06 in 10.0 mi South 5.8 mph - N/A   Scattered Clouds
4:53 AM 73.9 °F - 73.0 °F 97% 30.07 in 10.0 mi South 3.5 mph - N/A   Clear
5:24 AM 73.4 °F - 73.4 °F 100% 30.09 in 9.0 mi Calm Calm - N/A   Mostly Cloudy
5:53 AM 73.9 °F - 73.0 °F 97% 30.07 in 9.0 mi South 5.8 mph - N/A   Scattered Clouds
6:53 AM 75.0 °F - 73.0 °F 94% 30.08 in 10.0 mi SSW 4.6 mph - N/A   Overcast
7:53 AM 75.9 °F - 73.9 °F 94% 30.08 in 10.0 mi SSW 6.9 mph - N/A   Scattered Clouds
8:12 AM 77.0 °F - 73.4 °F 89% 30.10 in 10.0 mi SW 9.2 mph - N/A   Overcast
8:53 AM 78.1 °F - 73.9 °F 87% 30.09 in 10.0 mi SSW 9.2 mph - 0.01 in   Mostly Cloudy
9:28 AM 80.6 °F 85.4 °F 73.4 °F 79% 30.10 in 10.0 mi SSW 10.4 mph - N/A   Scattered Clouds
9:53 AM 81.0 °F 85.8 °F 73.0 °F 77% 30.08 in 10.0 mi SSW 12.7 mph - N/A   Mostly Cloudy
10:19 AM 80.6 °F 85.4 °F 73.4 °F 79% 30.10 in 10.0 mi SSW 11.5 mph - N/A   Mostly Cloudy
10:53 AM 81.0 °F 85.8 °F 73.0 °F 77% 30.08 in 10.0 mi SW 13.8 mph - N/A   Mostly Cloudy
11:53 AM 82.9 °F 89.4 °F 73.9 °F 74% 30.08 in 10.0 mi SSW 9.2 mph - N/A   Overcast
12:53 PM 86.0 °F 93.8 °F 73.9 °F 67% 30.06 in 10.0 mi SSW 8.1 mph 17.3 mph N/A   Mostly Cloudy
1:53 PM 87.1 °F 94.5 °F 73.0 °F 63% 30.04 in 10.0 mi South 9.2 mph - N/A   Scattered Clouds
2:53 PM 87.1 °F 94.5 °F 73.0 °F 63% 30.01 in 10.0 mi South 10.4 mph - N/A   Mostly Cloudy
3:53 PM 90.0 °F 95.4 °F 70.0 °F 52% 29.98 in 10.0 mi South 11.5 mph - N/A   Partly Cloudy
4:53 PM 89.1 °F 93.7 °F 69.1 °F 52% 29.97 in 10.0 mi South 12.7 mph - N/A   Clear
5:53 PM 87.1 °F 91.3 °F 69.1 °F 55% 29.95 in 10.0 mi South 12.7 mph - N/A   Clear
6:53 PM 86.0 °F 92.2 °F 72.0 °F 63% 29.95 in 10.0 mi South 11.5 mph - N/A   Scattered Clouds
7:53 PM 82.9 °F 87.0 °F 70.0 °F 65% 29.96 in 10.0 mi South 9.2 mph - N/A   Clear
8:53 PM 81.0 °F 84.9 °F 71.1 °F 72% 29.98 in 10.0 mi South 6.9 mph - N/A   Clear
9:53 PM 79.0 °F - 71.1 °F 77% 29.99 in 10.0 mi South 5.8 mph - N/A   Clear
10:53 PM 78.1 °F - 71.1 °F 79% 29.99 in 10.0 mi South 4.6 mph - N/A   Clear
11:53 PM 77.0 °F - 72.0 °F 84% 29.98 in 10.0 mi South 8.1 mph - N/A   Clear